TIME,DELAY(SENSOR),PRES,OXYGEN,RAWTEMP,T(OPTODE),TCPHASE,FLUOR,BETA(BETA700),BETA(BETA412),BETA(BETA440),CDOM,C(CSC),ED(ED411.90),ED(ED443.80),ED(ED489.40),ED(ED554.70),LU(LU412.20),LU(LU443.80),LU(LU489.40),LU(LU555.00),COMP,TILTX,TILTY,CHECK
1340403563,5802,852.1699829101562000,179.3157958984375000,471.4057006835937500,8.7725696563720700,39.3170089721679700,52,106,102,79,76,15420,2147443730,2147796608,2147581924,2147826486,2147307410,2147452800,2147754130,2148273252,441,6,14,5261
1340407159,5802,6.6999998092651370,217.3551940917968800,531.3366088867188000,6.8957839012146000,37.9941902160644500,51,107,105,79,76,15417,2147433947,2147797952,2147586678,2147830226,2147305325,2147444306,2147765129,2148276937,260,6,14,7572
1340410759,5807,8.1000003814697270,227.4521026611328000,541.8123168945312000,6.5651187896728520,37.6236190795898440,51,107,103,80,75,15384,2147435748,2147797558,2147585042,2147834166,2147308196,2147447341,2147770212,2148279725,322,6,15,10038
1340414359,5805,955.0000000000000000,230.6026000976562500,543.3754272460938000,6.5157089233398440,37.4831695556640600,50,106,102,79,77,15382,2147429174,2147800237,2147586212,2147829668,2147308745,2147442761,2147766774,2148279826,3446,6,15,23472
1340417959,5804,9.0000000000000000,232.9877014160156200,546.2495117187500000,6.4248070716857910,37.4088287353515600,51,109,102,78,75,15382,2147434852,2147802733,2147588004,2147834112,2147303862,2147443840,2147778020,2148279451,2530,6,15,5899
1340421559,5806,9.6999998092651370,234.0265960693359400,546.8598022460938000,6.4054927825927730,37.3651084899902340,51,108,102,79,77,15377,2147432448,2147801334,2147588736,2147832018,2147305334,2147444873,2147771702,2148280064,5,6,14,37692
1340425159,5804,9.3000001907348630,235.2095031738281200,549.9118041992188000,6.3088760375976560,37.3586692810058600,51,105,103,78,76,15376,2147432585,2147802816,2147588690,2147833910,2147302482,2147447268,2147775515,2148279945,476,6,15,57100
1340428759,5805,992.0000000000000000,235.3526000976562500,549.0870971679688000,6.3349909782409670,37.3361015319824200,51,107,103,77,76,15367,2147432283,2147802916,2147588150,2147832539,2147306550,2147448685,2147773750,2148276096,3337,6,15,41499
1340432359,5807,988.0000000000000000,234.4369049072265600,548.0816040039062000,6.3668251037597660,37.3653602600097660,51,106,106,78,76,15371,2147432219,2147805522,2147587136,2147833773,2147305344,2147449142,2147772013,2148279835,394,6,15,27369
1340435959,5807,9.1000003814697270,235.2653045654297000,548.6887207031250000,6.3476071357727050,37.3327598571777340,51,107,104,78,77,15374,2147431707,2147803520,2147587666,2147833728,2147307648,2147444269,2147772809,2148279341,11,6,14,34222
1340439559,5804,10.5000000000000000,234.4118041992187500,547.5997924804688000,6.3820738792419430,37.3578987121582000,51,106,104,78,77,15372,2147433554,2147801929,2147587602,2147832027,2147306139,2147444726,2147774098,2148278363,227,6,15,35859
1340443159,5806,198.0000000000000000,233.9407958984375000,547.4904785156250000,6.3855319023132320,37.3805694580078100,51,107,103,78,76,15368,2147433170,2147802249,2147585554,2147833691,2147305755,2147446555,2147769051,2148279314,511,6,15,9742
1340446759,5802,10.1000003814697270,235.3489074707031200,548.6494750976562000,6.3488450050354000,37.3280715942382800,51,106,103,80,75,15364,2147430628,2147800064,2147587501,2147832795,2147307190,2147445348,2147766006,2148280804,142,6,15,21713
1340450359,5805,10.5000000000000000,234.2019958496093800,548.5405883789062000,6.3522949218750000,37.3856010437011700,51,107,102,77,75,15370,2147432274,2147799826,2147588178,2147836992,2147304146,2147444946,2147771721,2148277412,534,6,15,64238
1340453959,5803,1033.0000000000000000,235.7671051025390600,549.4270019531250000,6.3242301940917970,37.3204994201660160,51,108,104,77,77,15370,2147430912,2147801563,2147587593,2147831917,2147305152,2147444306,2147772544,2148278390,739,6,15,63041
1340457559,5805,1055.0000000000000000,238.4512939453125000,551.7263793945312000,6.2513980865478520,37.2234191894531250,50,106,104,80,77,15364,2147432173,2147801910,2147587081,2147831433,2147308434,2147448923,2147769206,2148281892,3473,6,15,27677
1340461159,5806,10.0000000000000000,235.3365936279297000,551.2996826171875000,6.2649149894714355,37.3773117065429700,50,106,103,78,77,15364,2147429796,2147801746,2147585920,2147834916,2147306770,2147440192,2147770477,2148278290,261,6,15,7368
1340464759,5802,1085.0000000000000000,235.6941986083984400,551.2205810546875000,6.2674221992492680,37.3571205139160160,51,105,103,79,77,15363,2147430125,2147802816,2147585920,2147834669,2147305865,2147452022,2147770797,2148277028,157,6,14,44748
1340468359,5801,1045.0000000000000000,235.5030059814453000,550.7114868164062000,6.2835497856140140,37.3573493957519500,50,106,105,80,76,15360,2147432384,2147801609,2147585097,2147832009,2147305398,2147450998,2147765622,2148280137,3513,6,15,49574
1340471959,5807,1007.0000000000000000,235.3872070312500000,551.2119750976562000,6.2676959037780760,37.3724098205566400,51,108,103,78,77,15270,2147432694,2147802422,2147587227,2147833197,2147304036,2147451648,2147770834,2148278573,51,6,15,6156
1340475559,5806,1089.0000000000000000,236.2424926757812500,551.6904296875000000,6.2525391578674320,37.3370590209960940,51,106,103,81,76,15357,2147431579,2147798756,2147585435,2147834925,2147305106,2147451584,2147773659,2148274998,84,6,15,65241
1340479159,5805,10.8999996185302730,236.6529998779297000,552.4047851562500000,6.2298998832702640,37.3288116455078100,52,108,102,77,76,15397,2147431606,2147803556,2147584036,2147835017,2147304950,2147448064,2147779483,2148279707,5,6,15,55046
1340482759,5803,11.0000000000000000,237.4394989013672000,552.1068725585938000,6.2393441200256350,37.2823791503906250,51,111,103,79,76,15395,2147429485,2147803931,2147587072,2147833225,2147302299,2147448676,2147778413,2148277494,144,6,15,49207
1340486359,5804,1162.0000000000000000,237.0767059326172000,552.0797729492188000,6.2402000427246090,37.3007698059082000,51,106,103,78,77,15397,2147427364,2147800292,2147588708,2147837001,2147306285,2147451181,2147770980,2148279780,239,6,15,15249
1340489959,5806,11.3999996185302730,236.5352020263672000,551.0626220703125000,6.2724270820617680,37.3104095458984400,51,106,104,78,77,15382,2147429842,2147799506,2147588233,2147834404,2147303725,2147445906,2147770395,2148280969,172,6,14,48343
1340493559,5804,1062.0000000000000000,236.4197998046875000,549.9583740234375000,6.3074002265930180,37.2961692810058600,52,107,104,78,76,15392,2147431350,2147799972,2147589650,2147832109,2147305517,2147451053,2147772132,2148277577,3280,6,15,14045
1340497159,5802,1097.0000000000000000,236.5231018066406200,549.5333862304688000,6.3208618164062500,37.2830009460449200,50,106,104,81,77,15395,2147435702,2147800064,2147589046,2147834907,2147306212,2147450770,2147769481,2148279753,2668,6,15,31100
1340500759,5803,14.0000000000000000,235.3099975585937500,550.2780151367188000,6.2972807884216310,37.3598785400390600,51,106,103,79,76,15390,2147432054,2147800009,2147589385,2147833362,2147307264,2147448621,2147772123,2148281197,205,6,15,27020
1340504359,5804,1176.0000000000000000,234.9084930419922000,550.2423706054688000,6.2984089851379395,37.3800697326660160,51,106,103,79,75,15392,2147431424,2147800832,2147589302,2147833472,2147308918,2147447332,2147771456,2148280064,359,6,15,56609
1340507959,5802,11.0000000000000000,237.5234985351562500,551.4105834960938000,6.2614021301269530,37.2653007507324200,51,108,104,79,76,15393,2147431177,2147798848,2147588397,2147832420,2147306468,2147452461,2147772068,2148281033,3501,6,15,1737
1340511559,5803,11.8999996185302730,239.5108032226562500,552.9127197265625000,6.2138061523437500,37.1906585693359400,51,106,104,80,76,15392,2147430528,2147801865,2147591286,2147833060,2147302473,2147444864,2147769709,2148280777,3312,6,15,10103
1340515159,5805,11.6999998092651370,238.0368957519531200,552.4608154296875000,6.2281279563903810,37.2582283020019500,50,107,103,78,76,15391,2147430948,2147803099,2147586962,2147833325,2147306294,2147443328,2147772534,2148279908,588,6,15,44811
1340518759,5805,10.8000001907348630,238.0971069335937500,552.1666870117188000,6.2374458312988280,37.2498588562011700,51,107,105,79,76,15364,2147431552,2147797787,2147593161,2147834523,2147309979,2147445430,2147769499,2148281600,304,6,15,41031
1340522359,5802,10.8000001907348630,239.7445068359375000,553.0327148437500000,6.2100028991699220,37.1807289123535160,50,106,102,78,76,15364,2147430427,2147802861,2147590857,2147833161,2147307483,2147448082,2147770742,2148278171,3429,6,15,44634
1340525959,5803,1136.0000000000000000,238.0314941406250000,552.8762207031250000,6.2149639129638670,37.2657203674316400,51,109,103,79,76,15359,2147432640,2147801069,2147588571,2147833947,2147306916,2147447616,2147772132,2148278436,3306,6,15,5788
1340529559,5808,11.1999998092651370,236.2631988525390600,552.6223754882812000,6.2230072021484375,37.3530006408691400,51,105,102,78,76,15359,2147430253,2147804379,2147588708,2147833161,2147301952,2147447917,2147772708,2148279469,32,6,15,20797
1340533159,5800,11.3999996185302730,236.9586029052734400,551.5576171875000000,6.2567481994628910,37.2973709106445300,51,105,105,78,76,15356,2147431168,2147803675,2147587958,2147832420,2147307072,2147450477,2147772790,2148279588,3439,6,15,14856
1340536759,5806,1092.0000000000000000,237.3518066406250000,551.8101806640625000,6.2487411499023440,37.2811584472656250,51,106,104,78,77,15358,2147430820,2147800530,2147589065,2147833243,2147310281,2147448731,2147773632,2148282093,594,6,15,39021
1340540359,5804,10.3999996185302730,236.3143005371093800,551.7454223632812000,6.2507948875427250,37.3344802856445300,51,106,103,78,76,15355,2147430390,2147801993,2147590491,2147833874,2147303588,2147450459,2147777965,2148276032,3455,6,15,19686
1340543959,5805,1014.0000000000000000,236.1479949951172000,552.4541015625000000,6.2283401489257810,37.3558197021484400,51,106,103,77,77,15348,2147431771,2147801581,2147589412,2147834523,2147304877,2147449572,2147773504,2148280338,3505,6,15,28011
1340546756,5804,11.5000000000000000,237.3560028076172000,551.6486206054688000,6.2538638114929200,37.2784004211425800,51,106,104,77,76,15352,2147432448,2147798793,2147588800,2147831652,2147305883,2147451675,2147771483,2148280804,82,6,14,8980
